938  
ASUS41 KPHI 130611  
RWRPHI  
 
REGIONAL WEATHER ROUNDUP  
NATIONAL WEATHER SERVICE MOUNT HOLLY NJ  
200 AM EDT THU JUN 13 2024  
 
NOTE: "FAIR" INDICATES FEW OR NO CLOUDS BELOW 12,000 FEET WITH NO  
SIGNIFICANT WEATHER AND/OR S TO VISIBILITY
.  
 
* = STATION DOES NOT REPORT PRECIPITATION (E.G. RAIN, SNOW, ETC.)  
OR FOG.
 
 
NJZ015>026-130700-  
SOUTHERN NEW JERSEY  
 
CITY SKY/WX TMP DP RH WIND PRES REMARKS
 
POMONA CLEAR 65 60 84 SW3 30.02F  
6HR MIN TEMP: 65; 6HR MAX TEMP: 75;  
 
WILDWOOD* CLEAR 65 61 87 SW5 30.04S  
MILLVILLE CLEAR 57 54 89 CALM 30.02F  
WRIGHTSTOWN CLEAR 59 56 89 SE3 30.01S  
MOUNT HOLLY CLEAR 60 56 86 CALM 30.01F  
TRENTON CLEAR 64 54 69 CALM 30.00F  
6HR MIN TEMP: 61; 6HR MAX TEMP: 74;  
 

 
NJZ001>014-130700-  
NORTHERN NEW JERSEY  
 
CITY SKY/WX TMP DP RH WIND PRES REMARKS
 
SUSSEX CLEAR 53 51 93 CALM 30.01F  
ANDOVER* N/A 54 52 93 CALM 30.01F  
MORRISTOWN CLEAR 54 54 100 CALM 30.01S  
NEWARK CLEAR 67 60 78 CALM 30.00S  
TETERBORO CLEAR 63 59 87 CALM 29.99F  
CALDWELL CLEAR 60 55 83 CALM 30.01F  
SOMERVILLE CLEAR 56 55 97 CALM 29.99S  
ALLAIRE* CLEAR 63 57 81 SW5 30.03S  
TOMS RIVER* CLEAR 55 53 93 CALM 30.02S  
 

 
PAZ043-044-047-054-055-060>062-066>071-130700-  
EASTERN PENNSYLVANIA  
 
CITY SKY/WX TMP DP RH WIND PRES REMARKS
 
PHILADELPHIA CLEAR 68 61 78 SW3 30.01F  
6HR MIN TEMP: 67; 6HR MAX TEMP: 78;  
 
NORTH PHILA CLEAR 67 58 72 CALM 30.02F  
BLUE BELL* CLEAR 58 57 96 CALM 30.02S  
DOYLESTOWN CLEAR 62 53 72 S3 30.01S  
QUAKERTOWN* CLEAR 55 55 100 CALM 30.02S  
PERKASIE* CLEAR 55 55 100 CALM 30.02S  
POTTSTOWN CLEAR 57 52 83 CALM 30.02F  
LANCASTER CLEAR 62 55 77 CALM 30.01F  
COATESVILLE CLEAR 64 63 94 CALM 30.03S  
WEST CHESTER CLEAR 61 54 77 CALM 30.02F  
READING CLEAR 63 54 72 CALM 30.00F  
6HR MIN TEMP: 62; 6HR MAX TEMP: 77;  
 
ALLENTOWN CLEAR 57 51 80 CALM 30.00F  
6HR MIN TEMP: 56; 6HR MAX TEMP: 73;  
 
QN CITY/ALNTWN CLEAR 59 52 77 CALM 30.02S  
MOUNT POCONO CLEAR 50 46 86 CALM 30.03F  
6HR MIN TEMP: 50; 6HR MAX TEMP: 66;  
 
HAZLETON N/A 50 50 100 CALM 30.06S  
LEHIGHTON CLEAR 50 48 93 CALM 30.02F  
WILKES BARRE CLEAR 57 49 74 E6 30.01S  
 

 
DEZALL-MDZ008-012-015-019-020-130700-  
DELAWARE AND EASTERN MARYLAND  
 
CITY SKY/WX TMP DP RH WIND PRES REMARKS
 
WILMINGTON CLEAR 63 58 83 CALM 30.01F  
6HR MIN TEMP: 62; 6HR MAX TEMP: 75;  
 
DOVER CLEAR 64 58 82 S6 30.01S  
GEORGETOWN CLEAR 63 63 100 CALM 30.03F  
6HR MIN TEMP: 62; 6HR MAX TEMP: 72;  
 
EASTON CLEAR 66 62 88 CALM 30.02F  
STEVENSVILLE CLEAR 68 N/A N/A CALM 30.02S  
PATUXENT CLEAR 69 62 78 CALM 30.01F  
OCEAN CITY CLEAR 61 59 93 CALM 30.04S  
WALLOPS ISLAND CLEAR 67 64 90 S5 30.04S  
CAMBRIDGE CLEAR 66 66 100 CALM 30.02F  
SALISBURY CLEAR 60 58 92 CALM 30.04S  
 

 
PAZ001-021-NYZ056-072-MDZ011-DCZ001-130700-  
OTHER NEARBY LOCATIONS  
 
CITY SKY/WX TMP DP RH WIND PRES REMARKS
 
HARRISBURG CLEAR 64 54 69 E3 30.00S  
WILLIAMSPORT CLEAR 56 51 84 CALM 30.00R  
BINGHAMTON CLEAR 57 51 80 S3 30.01S  
NEW YORK CITY CLEAR 66 62 87 CALM 30.03S  
BALTIMORE CLEAR 65 59 81 CALM 30.01F  
WASHINGTON DC PTCLDY 71 63 75 S6 30.01F  
 

 
 
 
CLICK HERE TO GO TO PREVIOUS BULLETINS.

The Nexlab PA Page
The Nexlab NJ Page
The Nexlab DE Page
The Nexlab MD Page Main Text Page